STARLINK-33546 (62287 NORAD) Tracking and Keplerian Element Data

This shows tracking and keplerian element data for the satellite.

Feedback or suggestion? Click here.




ElementValue
Catalog62287
NameSTARLINK-33546
Epoch Orbit996
Epoch Day34.1967569
Epoch Year2025
RAAN316.0339
Inclination42.9978
Eccentricity0.000158
Argument of Perigee247.5753
Mean Anonmoly112.4937
Mean Motion15.40697943
Decay Rate1.5E-05
L11 62287U 24237W 25034.19675690 .00001500 00000+0 43168-4 0 9991
L22 62287 42.9978 316.0339 0001580 247.5753 112.4937 15.40697943 9967



Live tracking and technical data element details for STARLINK-33546 (NORAD 62287). STARLINK-33546 can be tracked NOW for your location showing map with azimuth and elevation plus other details from your city location.







IsCatalogInMostPopularTable: catalog: 62287, numindb: 13
Update: records affected: 1



GetName: 62287 STARLINK-33546

Hit Count: updated at: Sun, 18 May 2025 22:03:32 GMT